BREEZE-KM DEB, 41718

Orbit data source: Space-Track

BREEZE-KM DEB, 41718 is space debris in LEO originally from a launch on Tue, 31 Mar 2015 UTC launched from the Plesetsk Missile And Space Complex (PKMTR). Debris objects in space refer to the collection of defunct objects orbiting the Earth. Examples of debris include non-operational satellites, rocket bodies, and fragments generated from explosions, collisions, or faulty payload assembly.

Loading next visibility...
Identifier
41718, 2015-020F
Orbit
LEO
Last TLE update
3 days ago
Origin
Manufacturer
Khrunichev
Mission
Spacecraft
Bus & Motor
Unknown
Mass
Unknown
Launch date (UTC)
2015-03-31 (10 years ago)
Launch vehicle
Unknown
Launch site
Plesetsk Missile And Space Complex (PKMTR)
Object type
Payload
Rocket body
Debris
Shape & HBR
Unknown
Radar Cross Section
Small (<0.1 m²)

Expand to show TLE details & history

TLE from 3 days ago
0 BREEZE-KM DEB
1 41718U 15020F   25179.31454219  .00000062  00000-0  17112-3 0  9995
2 41718  82.4881  33.5758 0228783 359.7375   0.3576 12.91295919474211
Epoch: 2025-06-28T07:32Z
TLE epoch observation values (Epoch: 2025-06-28T07:32:56.445Z)
Latitude
0.00001°
Longitude
3.68579°
Altitude
1,123.548 km
Speed
7.374 km/s
True Right ascension
02h 14m 18s
True Declination
0° 00' 00"
Sunlit
Object was in daylight at epoch
Visualization orbit readout
Latitude
-25.717°
Longitude
-174.78029°
Altitude
1,451.388 km
Speed
7.068 km/s
Apparent Right ascension
12h 10m 09s
Apparent Declination
-39° 29' 56"
Sunlit
Object is in daylight
Visualization observer readout
Local Sidereal Time
20:46:42
Azimuth
253.673° W
Elevation
-51.418°
Doppler factor
1
Orbital elements
Apogee altitude
1,469.184 km
Perigee altitude
1,118.148 km
Semi-major axis
7,671.803 km
Eccentricity
0.02288
Inclination
82.4881°
RAAN
33.5758°
Arg. of periapsis
359.7375°
True anomaly
Unknown
Mean anomaly
0.3576°
Eccentric anomaly
Unknown
Mean motion
3.22996 °/min
Orbital period
111.46 mins
BSTAR
0.00017112
Loading maneuver chart data...
Loading SW <> Apogee altitude chart data...
Loading historical data...
Loading historical data...
Loading historical data...
Loading historical data...
Loading historical data...
Loading historical data...
Loading historical data...

BREEZE-KM DEB Visibility forecast

Observer location: undefined°, undefined°

Span
Click to sort rows by Start time (UTC) header in descending order
Start Az.
Max El. time (UTC)
Max El. Az.
Max El.
End time (UTC)
End Az.
11 mins2025-07-01 13:45:28.624Z143.78° SSE2025-07-01 13:50:28.624Z91.727° ESE28.997°2025-07-01 13:56:28.624Z28.287° NE
11 mins2025-07-01 15:38:28.624Z226.589° WSW2025-07-01 15:43:28.624Z294.049° NW32.728°2025-07-01 15:49:28.624Z352.646° N
4 mins2025-07-01 23:35:28.624Z48.578° ENE2025-07-01 23:36:28.624Z55.827° ENE11.61°2025-07-01 23:39:28.624Z77.151° E
15 mins2025-07-02 01:24:28.624Z1.552° NNE2025-07-02 01:31:28.624Z94.417° ESE41.772°2025-07-02 01:39:28.624Z160.192° S
12 mins2025-07-02 03:17:28.624Z323.385° NNW2025-07-02 03:22:28.624Z281.054° WNW24.454°2025-07-02 03:29:28.624Z225.113° WSW
|